This is the latest recevied weather packets stored in our database for station/object K7KAZ. If no packets are shown the sender has not sent any weather packets the latest 10 day(s).
| Time | Temp. | Humidity | Pressure | Rain* | Wind** | Luminosity | Snow |
|---|---|---|---|---|---|---|---|
| 1777993892 | 18.33° C | 57% | 1014.6 hPa | 0 mm | - | 99 W/m² | - |
| 1777993588 | 18.33° C | 57% | 1014.4 hPa | 0 mm | - | 111 W/m² | - |
| 1777993285 | 18.89° C | 57% | 1014.6 hPa | 0 mm | - | 159 W/m² | - |
| 1777992981 | 18.33° C | 57% | 1014.3 hPa | 0 mm | - | 136 W/m² | - |
| 1777992679 | 18.33° C | 56% | 1014.1 hPa | 0 mm | - | 127 W/m² | - |
| 1777992377 | 18.33° C | 57% | 1014.3 hPa | 0 mm | - | 97 W/m² | - |
| 1777992074 | 18.33° C | 56% | 1014.4 hPa | 0 mm | - | 87 W/m² | - |
| 1777991772 | 18.33° C | 56% | 1014 hPa | 0 mm | - | 109 W/m² | - |
| 1777991468 | 18.33° C | 54% | 1014.2 hPa | 0 mm | - | 117 W/m² | - |
| 1777991166 | 18.33° C | 54% | 1014.2 hPa | 0 mm | - | 102 W/m² | - |
| 1777990863 | 18.33° C | 55% | 1014.3 hPa | 0 mm | - | 99 W/m² | - |
| 1777990560 | 17.78° C | 55% | 1014.2 hPa | 0 mm | - | 92 W/m² | - |
| 1777989953 | 17.78° C | 56% | 1014.6 hPa | 0 mm | - | 76 W/m² | - |
| 1777989650 | 17.78° C | 58% | 1014.3 hPa | 0 mm | - | 69 W/m² | - |
| 1777989347 | 17.78° C | 58% | 1014.1 hPa | 0 mm | - | 59 W/m² | - |
| 1777989043 | 17.78° C | 59% | 1014.2 hPa | 0 mm | - | 45 W/m² | - |
| 1777988739 | 17.78° C | 59% | 1014.3 hPa | 0 mm | - | 49 W/m² | - |
| 1777988436 | 17.78° C | 62% | 1014.1 hPa | 0 mm | - | 37 W/m² | - |
| 1777988133 | 17.78° C | 66% | 1014 hPa | 0 mm | - | 28 W/m² | - |
| 1777987829 | 17.78° C | 67% | 1013.9 hPa | 0 mm | - | 32 W/m² | - |
| 1777987526 | 17.78° C | 68% | 1013.8 hPa | 0 mm | - | 43 W/m² | - |
| 1777987224 | 17.22° C | 70% | 1014 hPa | 0 mm | - | 31 W/m² | - |
| 1777986920 | 17.22° C | 70% | 1013.9 hPa | 0 mm | - | 22 W/m² | - |
| 1777986618 | 17.22° C | 70% | 1013.9 hPa | 0 mm | - | 16 W/m² | - |
| 1777986316 | 17.22° C | 69% | 1013.7 hPa | 0 mm | - | 12 W/m² | - |
* Rain latest hour (hover to see other rain measurements)
** Current wind speed in m/s (hover to see current wind gust speed)